Location: Châteauvieux
(47.2310°N, 1.3828°E)
Time: 23:34:47
(UTC+00:00)

Cosmos 1812 Rocket - Pass Details

Date: 15 May 2026
Orbit: 599 x 624 km, 82.5° (Epoch: 11 June)

Event Time Altitude Azimuth Distance (km) Brightness Sun altitude
Exits shadow 23:40:00 59° 259° (W) 718 3.7 -23.7°
Maximum altitude 23:40:18 61° 282° (WNW) 707 3.8 -23.7°
Drops below altitude 10° 23:44:42 10° 3° (N) 2,003 7.3 -23.7°
Sets 23:46:59 0° 7° (N) 2,917 8.4 -23.7°
